Regional Weather Roundup
Issued by NWS

Home | Current Version | Previous Version | Graphics & Text | Print | Product List | Glossary On
Versions: 1 2 3 4 5 6 7 8 9 10 11 12 13 14 15 16 17 18 19 20 21 22 23 24 25 26 27 28 29 30 31 32 33 34 35 36 37 38 39 40 41 42 43 44 45 46 47 48 49 50
000
ASUS45 KABQ 250610
RWRNM
NEW MEXICO REGIONAL WEATHER ROUNDUP
NATIONAL WEATHER SERVICE ALBUQUERQUE NM
1200 AM MDT MON MAY 25 2015

NOTE: "FAIR" MEANS FEW OR NO CLOUDS BELOW 12,000 FEET AGL WITH NO
       SIGNIFICANT WEATHER OR OBSTRUCTIONS TO VISION.

      THIS PRODUCT IS RELEASED AS TWO VERSIONS.  ONE VERSION NEAR
      THE TOP OF THE HOUR CONTAINING PRELIMINARY DATA FROM ALBUQUERQUE
      AND OTHER STATIONS.  A FINAL VERSION WITH ADDITIONAL DATA IS
      ISSUED ABOUT 10 MINUTES AFTER THE HOUR.

NMZ501-503-504-510>518-250700-
NORTHWEST PLATEAU/NORTHCENTRAL MOUNTAINS

CITY           SKY/WX    TMP DP  RH WIND       PRES   REMARKS
FARMINGTON     CLEAR     50  41  71 SW3       29.96S
6HR MIN TEMP:  50; 6HR MAX TEMP:  60;

LOS ALAMOS     PTCLDY    48  35  60 SW5       30.05R
SANTA FE       MOCLDY    50  37  61 SW9       30.01S
6HR MIN TEMP:  50; 6HR MAX TEMP:  64;

TAOS           PTCLDY    43  28  56 S3        30.02S
ANGEL FIRE     FAIR      40  34  80 SW3       30.06S

$$
NMZ402-403-502-505>509-250700-
WESTCENTRAL MOUNTAINS/SOUTHWEST MOUNTAINS

CITY           SKY/WX    TMP DP  RH WIND       PRES   REMARKS
GALLUP         CLOUDY    46  39  76 CALM      30.05F
6HR MIN TEMP:  45; 6HR MAX TEMP:  60;

GRANTS         CLOUDY    49  39  66 NW8       30.06F
SILVER CITY      N/A     57  30  35 W12       30.04S

$$
NMZ407-409-411-412-250700-
SOUTHERN DESERTS

CITY           SKY/WX    TMP DP  RH WIND       PRES   REMARKS
LORDSBURG      MOCLDY    59  32  36 SW3       29.99F
DEMING         MOCLDY    64  31  28 W24G30    29.96S
6HR MIN TEMP:  64; 6HR MAX TEMP:  78;

LAS CRUCES     PTCLDY    65  28  24 W20G26    29.95S
HOLLOMAN AFB   MOCLDY    65  30  26 N8        29.89R
ALAMOGORDO     MOCLDY    63  25  23 S3        29.90S
T OR C         PTCLDY    60  36  40 NW14      29.97R
6HR MIN TEMP:  60; 6HR MAX TEMP:  78;


$$
NMZ519>523-250700-
CENTRAL VALLEYS/CENTRAL HIGHLANDS

CITY           SKY/WX    TMP DP  RH WIND       PRES   REMARKS
ALBUQUERQUE    CLOUDY    55  44  66 E5        30.02S
6HR MIN TEMP:  51; 6HR MAX TEMP:  67; 6HR PCP:  0.10;

DOUBLE EAGLE   CLOUDY    50  47  88 S5        30.03R
MORIARTY ARPT  LGT RAIN  49  40  71 W9        30.04R
6HR MIN TEMP:  49; 6HR MAX TEMP:  63; 6HR PCP:  0.01;

CLINES CORNERS CLOUDY    48  37  65 W16       30.02R
6HR MIN TEMP:  47; 6HR MAX TEMP:  61; 6HR PCP: TRACE;

BELEN          CLOUDY    55  46  71 S5        30.02S
6HR MIN TEMP:  55; 6HR MAX TEMP:  66; 6HR PCP:  0.38;

SOCORRO        CLOUDY    59  39  46 N12G17    29.99R
6HR MIN TEMP:  59; 6HR MAX TEMP:  74;


$$
NMZ524>526-539-540-250700-
SOUTHCENTRAL MOUNTAINS

CITY           SKY/WX    TMP DP  RH WIND       PRES   REMARKS
RUIDOSO        PTCLDY    54  32  43 NW15G25   30.05R

$$
NMZ527>531-250700-
NORTHEAST HIGHLANDS/NORTHEAST PLAINS

CITY           SKY/WX    TMP DP  RH WIND       PRES   REMARKS
LAS VEGAS      MOCLDY    48  35  60 W15       30.00S
6HR MIN TEMP:  47; 6HR MAX TEMP:  59;

RATON          MOCLDY    45  35  68 CALM      29.93R
6HR MIN TEMP:  45; 6HR MAX TEMP:  63;

CLAYTON        CLEAR     47  42  83 CALM      29.87S
6HR MIN TEMP:  47; 6HR MAX TEMP:  68; 6HR PCP:  0.01;


$$
NMZ532>537-250700-
EASTCENTRAL PLAINS

CITY           SKY/WX    TMP DP  RH WIND       PRES   REMARKS
TUCUMCARI      PTCLDY    57  46  66 W12       29.84S
6HR MIN TEMP:  56; 6HR MAX TEMP:  77;

CANNON AFB     CLEAR     55  43  64 SW8       29.85S
6HR MIN TEMP:  55; 6HR MAX TEMP:  75;

CLOVIS AIRPORT PTCLDY    54  39  58 SW9       29.85R

$$
NMZ028-029-538-250700-
SOUTHEAST PLAINS

CITY           SKY/WX    TMP DP  RH WIND       PRES   REMARKS
ROSWELL        CLOUDY    65  32  29 SW10      29.84R
6HR MIN TEMP:  64; 6HR MAX TEMP:  84;

ARTESIA        MOCLDY    64  27  24 W10       29.85S
CARLSBAD       PTCLDY    59  35  40 W12       29.82F
6HR MIN TEMP:  59; 6HR MAX TEMP:  84;

HOBBS          CLEAR     55  39  54 CALM      29.88S


$$


USA.gov is the U.S. government's official web portal to all federal, state and local government web resources and services.